1497380400.11,46475,20.94,73768.8,1.25,-0.23,-0.23,0,*7F
1497380401.3,46476,20.94,73768.5,1.23,-0.11,-0.19,0,*72
1497380402.51,46477,20.94,73764.3,1.25,-0.19,-0.19,0,*7D
1497380403.69,46478,20.94,73766.8,1.23,-0.11,0.01,0,*68
1497380404.86,46479,20.94,73762.0,1.23,0.05,0.05,0,*75
1497380406.09,46480,20.94,73762.0,1.25,0.13,0.17,0,*71
1497380407.32,46481,20.94,73760.8,1.25,0.13,0.17,0,*70
1497380408.56,46482,20.94,73760.0,1.25,0.13,0.17,0,*73
1497380409.79,46483,20.94,73762.5,1.25,0.17,0.17,0,*76
1497380411.03,46484,20.94,73764.3,1.25,0.25,0.13,0,*74
1497380412.26,46485,20.94,73762.0,1.25,0.17,0.25,0,*71
1497380413.5,46486,20.94,73766.8,1.25,0.25,0.17,0,*72
1497380414.68,46487,20.94,73766.3,1.25,0.01,0.05,0,*76
1497380415.88,46488,20.94,73768.3,1.25,-0.07,-0.07,0,*7D
1497380417.05,46489,20.94,73766.8,1.27,0.05,0.05,0,*7E
1497380418.23,46490,20.94,73768.0,1.25,0.01,0.05,0,*70
1497380419.41,46491,20.94,73768.5,1.25,0.01,0.01,0,*75
1497380420.62,46492,20.94,73770.3,1.25,-0.11,-0.19,0,*7E
1497380421.8,46493,20.94,73764.3,1.23,-0.29,-0.29,0,*71
1497380423.01,46494,20.94,73766.8,1.25,-0.29,-0.33,0,*7B
1497380424.24,46495,20.94,73762.5,1.23,-0.23,-0.23,0,*77
1497380425.45,46496,20.94,73764.3,1.25,-0.11,-0.19,0,*7A
1497380426.66,46497,20.94,73760.5,1.25,-0.19,-0.11,0,*7B
1497380427.87,46498,20.94,73764.3,1.25,-0.11,-0.19,0,*74
1497380429.04,46499,20.94,73764.0,1.23,0.01,-0.07,0,*50
1497380430.23,46500,20.94,73768.8,1.25,-0.07,0.01,0,*57
1497380431.42,46501,20.94,73770.5,1.25,0.01,-0.07,0,*56
1497380432.61,46502,20.94,73766.8,1.25,-0.07,0.01,0,*55
1497380433.78,46503,20.94,73770.5,1.23,-0.07,-0.07,0,*79
1497380434.95,46504,20.94,73770.8,1.23,-0.07,0.05,0,*51
1497380436.14,46505,20.94,73768.3,1.25,0.01,0.01,0,*79
1497380437.3,46506,20.94,73768.8,1.23,0.01,-0.07,0,*57
1497380438.48,46507,20.94,73768.8,1.23,0.01,-0.11,0,*61
1497380439.65,46508,20.94,73768.3,1.23,-0.07,-0.07,0,*72
1497380440.84,46509,20.94,73772.3,1.25,0.01,-0.07,0,*5E
1497380442.01,46510,20.94,73770.5,1.23,0.01,-0.07,0,*50
1497380443.17,46511,20.94,73768.8,1.23,0.01,-0.07,0,*51
1497380444.34,46512,20.94,73772.3,1.23,0.01,0.05,0,*7D
1497380445.51,46513,20.94,73774.8,1.23,0.05,0.05,0,*78
1497380446.7,46514,20.94,73772.3,1.25,0.01,-0.07,0,*52
1497380447.87,46515,20.94,73772.5,1.23,0.01,-0.11,0,*62
1497380449.05,46516,20.94,73774.0,1.25,0.01,0.01,0,*7B
1497380450.27,46517,20.94,73774.8,1.23,0.13,0.17,0,*78
1497380451.48,46518,20.94,73774.3,1.23,0.17,0.17,0,*73
1497380452.69,46519,20.94,73772.8,1.23,0.17,0.17,0,*72
1497380453.86,46520,20.94,73774.3,1.23,-0.07,0.01,0,*53
1497380455.05,46521,20.94,73772.5,1.25,0.01,-0.07,0,*54
1497380456.22,46522,20.94,73772.8,1.23,0.05,0.01,0,*7E
1497380457.38,46523,20.94,73778.8,1.23,0.01,-0.07,0,*50
1497380458.55,46524,20.94,73774.5,1.23,0.01,-0.07,0,*57
1497380459.77,46525,20.94,73774.5,1.23,0.13,0.13,0,*7D
1497380460.96,46526,20.94,73772.5,1.23,0.13,0.05,0,*49
1497380462.14,46527,20.94,73770.8,1.21,0.01,-0.03,0,*52
1497380463.35,46528,20.94,73774.0,1.23,0.13,-0.11,0,*5F
1497380464.55,46529,20.94,73776.3,1.23,0.05,-0.23,0,*68
1497380465.77,46530,20.94,73776.0,1.25,-0.29,-0.85,0,*79
1497380467.0,46531,20.94,73768.5,1.25,-0.93,-1.33,0,*45
1497380468.22,46532,20.94,73772.8,1.23,-1.59,-1.47,0,*74
1497380469.41,46533,20.94,73768.5,1.23,-1.67,-1.33,0,*7B
1497380470.62,46534,20.94,73768.0,1.25,-1.67,-1.55,0,*7A
1497380471.87,46535,20.94,73766.8,1.25,-2.11,-1.67,0,*78
1497380473.08,46536,20.94,73760.3,1.25,-2.23,-1.59,0,*77
1497380474.34,46537,20.94,73760.0,1.25,-1.95,-1.47,0,*77
1497380475.56,46538,20.94,73760.0,1.23,-1.71,-1.43,0,*70
1497380476.79,46539,20.94,73754.8,1.23,-1.67,-1.47,0,*72
1497380477.98,46540,20.94,73756.3,1.23,-1.55,-1.55,0,*7E
1497380479.19,46541,20.94,73752.5,1.25,-1.67,-1.55,0,*78
1497380480.4,46542,20.94,73756.8,1.25,-1.79,-1.33,0,*74
1497380481.62,46543,20.94,73758.0,1.23,-1.71,-1.05,0,*7E
1497380482.86,46544,20.94,73752.3,1.25,-1.71,-0.97,0,*45
1497380484.07,46545,20.94,73754.0,1.23,-1.35,-0.81,0,*45
1497380485.29,46546,20.94,73752.8,1.23,-0.97,-0.45,0,*77
1497380486.48,46547,20.94,73750.0,1.23,-0.81,-0.33,0,*70
1497380487.68,46548,20.94,73750.5,1.25,-0.49,-0.29,0,*76
1497380488.86,46549,20.94,73752.8,1.23,-0.37,-0.29,0,*78
1497380490.04,46550,20.94,73746.8,1.23,-0.49,-0.29,0,*79
1497380491.22,46551,20.94,73756.5,1.23,-0.49,-0.29,0,*78
1497380492.42,46552,20.94,73742.0,1.23,-0.73,-0.49,0,*74
1497380493.6,46553,20.94,73744.3,1.23,-0.37,-0.33,0,*78
1497380494.81,46554,20.94,73736.3,1.21,-0.11,0.09,0,*6D
1497380495.98,46555,20.94,73734.0,1.23,-0.07,0.01,0,*51
1497380497.14,46556,20.94,73730.8,1.23,-0.07,0.01,0,*52
1497380498.31,46557,20.94,73736.5,1.23,0.01,0.05,0,*7C
1497380499.48,46558,20.94,73740.3,1.23,0.05,0.05,0,*77
1497380500.65,46559,20.94,73746.0,1.23,0.05,0.01,0,*72
1497380501.82,46560,20.94,73748.8,1.23,-0.07,0.01,0,*57
1497380503.03,46561,20.94,73748.5,1.23,0.13,0.13,0,*7D
1497380504.2,46562,20.94,73752.8,1.23,0.05,-0.07,0,*51
1497380505.42,46563,20.94,73756.3,1.23,0.17,0.13,0,*7B
1497380506.63,46564,20.94,73758.3,1.23,0.17,0.25,0,*79
1497380507.85,46565,20.94,73762.0,1.23,0.29,0.29,0,*79
1497380509.07,46566,20.94,73762.3,1.23,0.17,0.13,0,*7E
1497380510.28,46567,20.94,73758.3,1.21,-0.11,-0.11,0,*79
1497380511.49,46568,20.94,73760.5,1.25,-0.07,-0.11,0,*45
1497380512.68,46569,20.94,73760.3,1.23,-0.11,-0.19,0,*7D
1497380513.87,46570,20.94,73758.3,1.23,-0.11,-0.19,0,*75
1497380515.08,46571,20.94,73752.3,1.23,-0.23,-0.19,0,*75
1497380516.29,46572,20.94,73752.3,1.23,-0.23,-0.19,0,*76
1497380517.55,46573,20.94,73754.5,1.21,-0.27,-0.27,0,*7C
1497380518.8,46574,20.94,73752.5,1.21,-0.27,-0.27,0,*7B
1497380520.0,46575,20.94,73750.5,1.21,-0.33,-0.33,0,*7A
1497380521.21,46576,20.94,73754.5,1.21,-0.33,-0.33,0,*79
1497380522.43,46577,20.94,73752.0,1.21,-0.41,-0.41,0,*78
1497380523.64,46578,20.94,73748.5,1.17,-0.53,-0.57,0,*76
1497380524.85,46579,20.94,73752.0,1.17,-0.37,-0.41,0,*72
1497380526.06,46580,20.94,73754.0,1.17,-0.29,-0.37,0,*7A
1497380527.27,46581,20.94,73756.3,1.17,-0.29,-0.37,0,*7B
1497380528.52,46582,20.94,73750.0,1.17,-0.27,-0.27,0,*77
1497380529.78,46583,20.94,73750.5,1.17,-0.27,-0.27,0,*76
1497380530.99,46584,20.94,73756.3,1.17,-0.19,-0.19,0,*71
1497380532.21,46585,20.94,73756.5,1.17,-0.19,-0.19,0,*70
1497380533.46,46586,20.94,73752.8,1.17,-0.27,-0.27,0,*73
1497380534.68,46587,20.94,73752.0,1.15,-0.27,-0.19,0,*7D
1497380535.89,46588,20.94,73750.5,1.15,-0.19,-0.27,0,*72
1497380537.09,46589,20.94,73756.3,1.15,-0.15,-0.15,0,*7E
1497380538.28,46590,20.94,73758.8,1.15,-0.15,-0.19,0,*7A
1497380539.46,46591,20.94,73754.5,1.15,-0.07,-0.07,0,*77
1497380540.64,46592,20.94,73758.8,1.15,-0.15,-0.07,0,*47
1497380541.84,46593,20.94,73762.5,1.15,0.09,0.17,0,*4A
1497380543.06,46594,20.94,73756.5,1.15,0.29,0.29,0,*72
1497380544.3,46595,20.94,73758.3,1.17,0.33,0.41,0,*74
1497380545.53,46596,20.94,73758.8,1.17,0.33,0.33,0,*72
1497380546.77,46597,20.94,73756.3,1.17,0.41,0.33,0,*76
1497380548.01,46598,20.94,73756.8,1.17,0.41,0.41,0,*7C
1497380549.23,46599,20.94,73760.0,1.21,0.51,0.43,0,*7B
1497380550.44,46600,20.94,73758.5,1.17,0.43,0.47,0,*7A
1497380551.69,46601,20.94,73760.5,1.17,0.55,0.47,0,*7C
1497380552.94,46602,20.94,73764.0,1.21,0.59,0.51,0,*71
1497380554.18,46603,20.94,73760.0,1.21,0.51,0.47,0,*7F
1497380555.42,46604,20.94,73762.8,1.21,0.51,0.51,0,*7F
1497380556.67,46605,20.94,73768.0,1.21,0.63,0.51,0,*7F
1497380557.91,46606,20.94,73768.0,1.21,0.63,0.59,0,*74
1497380559.12,46607,20.94,73770.5,1.23,0.75,0.63,0,*79
1497380560.34,46608,20.94,73768.0,1.23,0.75,0.67,0,*72
1497380561.56,46609,20.94,73768.8,1.23,0.75,0.63,0,*77
1497380562.8,46610,20.94,73770.5,1.25,0.55,0.41,0,*7B
1497380564.02,46611,20.94,73770.8,1.23,0.37,0.37,0,*79
1497380565.25,46612,20.94,73772.3,1.25,0.37,0.37,0,*7C
1497380566.49,46613,20.94,73772.3,1.25,0.29,0.25,0,*71
1497380567.72,46614,20.94,73770.3,1.25,0.17,0.17,0,*7A
1497380568.96,46615,20.94,73768.0,1.25,0.17,0.17,0,*7B
1497380570.17,46616,20.94,73768.3,1.23,0.25,0.17,0,*7F
1497380571.41,46617,20.94,73768.3,1.25,0.29,0.29,0,*79
1497380572.63,46618,20.94,73764.3,1.23,0.37,0.29,0,*7F
1497380573.84,46619,20.94,73766.3,1.23,0.17,0.17,0,*71
1497380575.08,46620,20.94,73768.0,1.25,0.25,0.25,0,*7D
1497380576.32,46621,20.94,73766.0,1.25,0.41,0.37,0,*7D
1497380577.56,46622,20.94,73766.3,1.25,0.47,0.47,0,*7F
1497380578.81,46623,20.94,73768.0,1.25,0.41,0.47,0,*78
1497380580.04,46624,20.94,73766.5,1.25,0.47,0.41,0,*7F
1497380581.28,46625,20.94,73764.3,1.25,0.41,0.41,0,*78
1497380582.52,46626,20.94,73770.5,1.25,0.47,0.47,0,*7B
1497380583.77,46627,20.94,73770.3,1.25,0.47,0.47,0,*7A
1497380585.01,46628,20.94,73768.0,1.25,0.47,0.47,0,*75
1497380586.26,46629,20.94,73770.0,1.25,0.47,0.47,0,*74
1497380587.5,46630,20.94,73766.3,1.25,0.47,0.47,0,*7C
1497380588.72,46631,20.94,73764.8,1.27,0.51,0.51,0,*7F
1497380589.91,46632,20.94,73766.8,1.27,0.43,0.51,0,*7F
1497380591.16,46633,20.94,73768.0,1.29,0.51,0.51,0,*73
1497380592.37,46634,20.94,73770.5,1.27,0.59,0.59,0,*7A
1497380593.59,46635,20.94,73776.5,1.27,0.79,0.79,0,*7B
1497380594.84,46636,20.94,73776.5,1.29,0.83,0.71,0,*7B
1497380596.05,46637,20.94,73776.0,1.27,0.83,0.67,0,*73
1497380597.27,46638,20.94,73778.8,1.27,0.79,0.67,0,*79
1497380598.49,46639,20.94,73774.5,1.29,0.51,0.43,0,*7A
1497380599.69,46640,20.94,73778.8,1.27,0.51,0.43,0,*7A
1497380600.93,46641,20.94,73778.8,1.29,0.51,0.51,0,*76
1497380602.15,46642,20.94,73774.3,1.27,0.51,0.51,0,*7B
1497380603.37,46643,20.94,73778.3,1.27,0.71,0.55,0,*7C
1497380604.61,46644,20.94,73778.8,1.29,0.71,0.67,0,*74
1497380605.83,46645,20.94,73776.0,1.27,0.71,0.59,0,*76
1497380607.08,46646,20.94,73778.3,1.29,0.71,0.55,0,*77
1497380608.32,46647,20.94,73772.3,1.29,0.71,0.55,0,*76
1497380609.53,46648,20.94,73774.8,1.27,0.67,0.59,0,*7C
1497380610.78,46649,20.94,73774.0,1.29,0.55,0.55,0,*7E
1497380612.03,46650,20.94,73772.0,1.29,0.59,0.55,0,*7A
1497380613.25,46651,20.94,73774.0,1.31,0.59,0.59,0,*7E
1497380614.46,46652,20.94,73772.0,1.31,0.71,0.63,0,*7E
1497380615.7,46653,20.94,73772.8,1.33,0.75,0.71,0,*7A
1497380616.92,46654,20.94,73774.5,1.31,0.59,0.59,0,*7B
1497380618.14,46655,20.94,73772.0,1.31,0.59,0.55,0,*76
1497380619.35,46656,20.94,73772.0,1.31,0.63,0.63,0,*79
1497380620.57,46657,20.94,73768.8,1.31,0.71,0.71,0,*78
1497380621.81,46658,20.94,73772.0,1.33,0.75,0.75,0,*75
1497380623.03,46659,20.94,73770.3,1.31,0.71,0.71,0,*76
1497380624.27,46660,20.94,73770.0,1.33,0.71,0.71,0,*7E
1497380625.49,46661,20.94,73768.5,1.31,0.71,0.71,0,*7D
1497380626.7,46662,20.94,73770.0,1.31,0.75,0.71,0,*7A
1497380627.95,46663,20.94,73770.5,1.33,0.71,0.75,0,*79
1497380629.19,46664,20.94,73772.8,1.33,0.75,0.75,0,*7A
1497380630.43,46665,20.94,73782.8,1.33,0.83,0.75,0,*72
1497380631.67,46666,20.94,73780.5,1.33,0.71,0.71,0,*78
1497380632.91,46667,20.94,73782.8,1.33,0.75,0.71,0,*7D
1497380634.15,46668,20.94,73784.3,1.33,0.71,0.63,0,*75
1497380635.39,46669,20.94,73784.3,1.33,0.47,0.37,0,*70
1497380636.62,46670,20.94,73788.0,1.33,0.37,0.25,0,*7C
1497380637.84,46671,20.94,73790.3,1.33,0.21,0.01,0,*4C
1497380639.03,46672,20.94,73790.8,1.31,0.13,-0.03,0,*63
1497380640.26,46673,20.88,73788.0,1.33,-0.11,-0.23,0,*7D
1497380641.46,46674,20.94,73792.8,1.33,-0.49,-0.49,0,*7B
1497380642.67,46675,20.94,73790.3,1.31,-0.85,-0.77,0,*75
1497380643.85,46676,20.94,73790.3,1.31,-0.77,-0.65,0,*78
1497380645.04,46677,20.94,73790.5,1.31,-0.73,-0.53,0,*78
1497380646.24,46678,20.94,73790.5,1.27,-0.29,-0.27,0,*7C
1497380647.47,46679,20.94,73784.3,1.29,-0.29,-0.27,0,*73
1497380648.67,46680,20.94,73774.0,1.29,-0.45,-0.45,0,*7B
1497380649.89,46681,20.94,73756.3,1.29,-0.41,-0.41,0,*7A
1497380651.1,46682,20.94,73762.5,1.29,-0.33,-0.33,0,*79
1497380652.31,46683,20.94,73762.0,1.29,-0.19,-0.15,0,*74
1497380653.5,46684,20.94,73762.0,1.27,-0.15,-0.15,0,*71
1497380654.69,46685,20.94,73768.8,1.29,-0.29,-0.29,0,*7E
1497380655.88,46686,20.94,73770.5,1.27,-0.15,-0.15,0,*73
1497380657.06,46687,20.94,73766.0,1.27,-0.15,-0.19,0,*7E
1497380658.27,46688,20.94,73774.5,1.25,-0.29,-0.33,0,*74
1497380659.45,46689,20.94,73768.8,1.23,-0.57,-0.61,0,*7D
1497380660.65,46690,20.94,73758.8,1.25,-0.57,-0.61,0,*73
1497380661.84,46691,20.88,73754.8,1.23,-0.45,-0.49,0,*7D
1497380663.03,46692,20.94,73762.5,1.23,-0.45,-0.37,0,*77
1497380664.21,46693,20.94,73758.8,1.23,-0.49,-0.45,0,*7F
1497380665.42,46694,20.94,73762.0,1.25,-0.37,-0.45,0,*77
1497380666.63,46695,20.88,73754.5,1.25,-0.45,-0.37,0,*76
1497380667.81,46696,20.94,73750.0,1.23,-0.33,-0.33,0,*76
1497380669.0,46697,20.94,73748.8,1.23,-0.33,-0.37,0,*73
1497380670.19,46698,20.94,73754.0,1.23,-0.33,-0.37,0,*7C
1497380671.37,46699,20.94,73760.8,1.23,-0.29,-0.33,0,*72
1497380672.58,46700,20.94,73758.3,1.23,-0.23,-0.33,0,*79
1497380673.82,46701,20.94,73760.5,1.23,-0.23,-0.23,0,*79
1497380675.05,46702,20.94,73762.3,1.21,-0.23,-0.33,0,*79
1497380676.25,46703,20.94,73756.5,1.21,-0.33,-0.49,0,*74
1497380677.46,46704,20.94,73762.0,1.21,-0.49,-0.37,0,*77
1497380678.72,46705,20.94,73760.0,1.21,-0.27,-0.27,0,*7F
1497380679.94,46706,20.94,73762.8,1.17,-0.29,-0.27,0,*77
1497380681.15,46707,20.94,73762.5,1.21,-0.33,-0.33,0,*7D
1497380682.4,46708,20.94,73760.0,1.21,-0.23,-0.27,0,*76
1497380683.66,46709,20.94,73758.5,1.21,-0.23,-0.23,0,*73
1497380684.86,46710,20.94,73762.3,1.21,-0.03,-0.03,0,*7B
1497380686.08,46711,20.94,73760.3,1.21,-0.33,-0.27,0,*7F
1497380687.29,46712,20.94,73762.0,1.17,-0.45,-0.45,0,*7C
1497380688.54,46713,20.94,73760.3,1.21,-0.27,-0.23,0,*7C
1497380689.75,46714,20.94,73770.8,1.17,-0.15,-0.07,0,*49
1497380691.0,46715,20.94,73768.0,1.21,-0.23,-0.23,0,*7E
1497380692.25,46716,20.94,73768.0,1.21,-0.23,-0.27,0,*79
1497380693.47,46717,20.94,73764.5,1.17,-0.37,-0.37,0,*79
1497380694.72,46718,20.94,73764.8,1.21,-0.27,-0.27,0,*73
1497380695.95,46719,20.88,73760.5,1.21,-0.33,-0.23,0,*73
1497380697.16,46720,20.94,73768.5,1.21,-0.37,-0.37,0,*78
1497380698.38,46721,20.94,73766.8,1.17,-0.41,-0.41,0,*7C
1497380699.58,46722,20.94,73768.5,1.17,-0.29,-0.29,0,*7F
1497380700.78,46723,20.94,73770.5,1.17,-0.29,-0.29,0,*7E
1497380702.01,46724,20.94,73768.3,1.17,-0.27,-0.19,0,*74
1497380703.27,46725,20.94,73760.3,1.21,-0.27,-0.23,0,*79
1497380704.5,46726,20.94,73764.0,1.17,-0.29,-0.27,0,*75
1497380705.7,46727,20.94,73762.8,1.17,-0.37,-0.29,0,*75
1497380706.92,46728,20.94,73764.5,1.17,-0.41,-0.41,0,*75
1497380708.1,46729,20.94,73762.8,1.15,-0.29,-0.29,0,*76
1497380709.32,46730,20.94,73756.8,1.15,-0.27,-0.19,0,*73
1497380710.51,46731,20.94,73756.5,1.15,-0.15,-0.15,0,*7F
1497380711.69,46732,20.94,73766.3,1.15,0.09,0.05,0,*70
1497380712.88,46733,20.94,73770.0,1.15,0.17,0.09,0,*42
1497380714.08,46734,20.94,73762.5,1.17,-0.07,-0.07,0,*78
1497380715.27,46735,20.94,73760.0,1.17,0.05,0.05,0,*79
1497380716.47,46736,20.94,73768.8,1.17,0.09,0.09,0,*7A
1497380717.67,46737,20.94,73764.5,1.17,-0.07,-0.19,0,*44
1497380718.86,46738,20.94,73766.5,1.17,0.09,0.05,0,*78
1497380720.06,46739,20.94,73764.0,1.17,0.05,-0.03,0,*5E
1497380721.27,46740,20.88,73762.8,1.21,-0.03,-0.11,0,*4D
1497380722.46,46741,20.94,73760.8,1.17,0.05,-0.03,0,*51
1497380723.72,46742,20.94,73766.5,1.17,-0.27,-0.27,0,*79
1497380724.93,46743,20.94,73762.3,1.17,-0.37,-0.29,0,*77
1497380726.13,46744,20.94,73754.5,1.17,-0.53,-0.53,0,*7F
1497380727.34,46745,20.94,73756.5,1.21,-0.15,-0.15,0,*7B
1497380728.58,46746,20.94,73760.0,1.21,-0.23,-0.15,0,*7D
1497380729.79,46747,20.94,73754.8,1.17,-0.57,-0.45,0,*7F
1497380731.0,46748,20.94,73754.3,1.17,-0.45,-0.41,0,*77
1497380732.2,46749,20.94,73758.3,1.17,-0.29,-0.29,0,*72
1497380733.41,46750,20.94,73758.3,1.17,-0.29,-0.19,0,*79
1497380734.63,46751,20.88,73758.3,1.17,-0.41,-0.41,0,*7B
1497380735.84,46752,20.94,73756.0,1.21,-0.73,-0.65,0,*7A
1497380737.04,46753,20.94,73758.3,1.21,-0.73,-0.65,0,*7B
1497380738.25,46754,20.94,73754.0,1.17,-0.69,-0.57,0,*73
1497380739.44,46755,20.94,73752.8,1.15,-0.37,-0.29,0,*72
1497380740.63,46756,20.94,73752.5,1.15,-0.19,-0.19,0,*7E
1497380741.81,46757,20.94,73756.0,1.15,-0.07,-0.03,0,*7B
1497380742.99,46758,20.88,73752.8,1.15,-0.03,-0.07,0,*74
1497380744.22,46759,20.94,73758.3,1.15,0.21,0.21,0,*71
1497380745.45,46760,20.94,73756.8,1.15,0.29,0.29,0,*7B
1497380746.67,46761,20.88,73756.5,1.15,0.41,0.41,0,*7A
1497380747.91,46762,20.94,73758.3,1.17,0.41,0.33,0,*7E
1497380749.14,46763,20.94,73758.5,1.17,0.41,0.41,0,*7A
1497380750.33,46764,20.94,73754.8,1.21,0.43,0.43,0,*78
1497380751.54,46765,20.94,73754.0,1.17,0.43,0.37,0,*7F
1497380752.78,46766,20.94,73756.0,1.21,0.33,0.25,0,*7D
1497380754.02,46767,20.94,73754.0,1.21,0.33,0.21,0,*78
1497380755.26,46768,20.88,73750.5,1.21,0.37,0.21,0,*73
1497380756.49,46769,20.94,73752.3,1.21,0.33,0.25,0,*72
1497380757.71,46770,20.94,73752.8,1.21,0.43,0.37,0,*7E
1497380758.89,46771,20.94,73750.5,1.21,0.43,0.43,0,*7C
1497380760.08,46772,20.94,73750.3,1.21,0.43,0.43,0,*7F
1497380761.27,46773,20.94,73748.3,1.21,0.43,0.43,0,*7E
1497380762.45,46774,20.94,73752.5,1.21,0.43,0.43,0,*79
1497380763.66,46775,20.88,73750.5,1.21,0.43,0.37,0,*7B
1497380764.85,46776,20.94,73750.5,1.21,0.43,0.43,0,*7B
1497380766.08,46777,20.94,73750.0,1.23,0.51,0.47,0,*7F
1497380767.3,46778,20.94,73750.8,1.23,0.51,0.55,0,*73
1497380768.53,46779,20.94,73748.3,1.23,0.55,0.55,0,*76
1497380769.74,46780,20.94,73754.5,1.23,0.67,0.63,0,*74
1497380770.98,46781,20.94,73752.8,1.25,0.63,0.63,0,*77
1497380772.2,46782,20.88,73748.8,1.23,0.63,0.63,0,*72
1497380773.42,46783,20.94,73750.8,1.23,0.55,0.63,0,*76
1497380774.67,46784,20.94,73752.3,1.25,0.55,0.55,0,*72
1497380775.89,46785,20.88,73752.0,1.23,0.55,0.67,0,*74
1497380777.14,46786,20.94,73754.8,1.25,0.55,0.75,0,*72
1497380778.37,46787,20.94,73752.3,1.25,0.63,0.67,0,*75
1497380779.61,46788,20.94,73756.5,1.25,0.63,0.63,0,*7E
1497380780.85,46789,20.94,73758.8,1.25,0.55,0.63,0,*7A
1497380782.09,46790,20.88,73756.0,1.25,0.55,0.67,0,*76
1497380783.31,46791,20.94,73756.8,1.23,0.51,0.63,0,*71
1497380784.56,46792,20.94,73758.5,1.25,0.55,0.63,0,*70
1497380785.79,46793,20.94,73758.5,1.25,0.63,0.63,0,*74
1497380787.04,46794,20.94,73762.0,1.25,0.55,0.67,0,*72
1497380788.28,46795,20.88,73760.0,1.29,0.71,0.79,0,*76
1497380789.49,46796,20.88,73764.0,1.27,0.67,0.79,0,*7C
1497380790.73,46797,20.88,73764.8,1.29,0.71,0.71,0,*7C
1497380791.94,46798,20.88,73766.0,1.27,0.67,0.71,0,*7A
1497380793.16,46799,20.94,73768.5,1.27,0.55,0.55,0,*7C
1497380794.35,46800,20.94,73774.8,1.29,0.43,0.43,0,*7D
1497380795.59,46801,20.94,73772.3,1.29,0.33,0.29,0,*77
1497380796.8,46802,20.88,73772.0,1.27,0.41,0.33,0,*74
1497380798.01,46803,20.94,73774.0,1.27,0.33,0.33,0,*70
1497380799.22,46804,20.88,73772.5,1.27,0.41,0.41,0,*77
1497380800.44,46805,20.88,73772.5,1.27,0.29,0.21,0,*7E
1497380801.66,46806,20.88,73774.3,1.27,0.21,0.21,0,*75
1497380802.88,46807,20.94,73778.0,1.27,0.41,0.33,0,*71
1497380804.08,46808,20.94,73776.5,1.27,0.33,0.33,0,*7B
1497380805.3,46809,20.94,73778.5,1.27,0.29,0.17,0,*77
1497380806.53,46810,20.94,73776.5,1.25,0.17,0.13,0,*74
1497380807.72,46811,20.88,73778.8,1.25,0.05,0.05,0,*71
1497380808.96,46812,20.94,73782.5,1.25,0.17,0.13,0,*76
1497380810.19,46813,20.88,73782.5,1.25,0.29,0.25,0,*7F
1497380811.43,46814,20.94,73786.8,1.25,0.37,0.37,0,*74
1497380812.65,46815,20.94,73782.8,1.23,0.41,0.47,0,*75
1497380813.89,46816,20.88,73784.0,1.25,0.47,0.41,0,*70
1497380815.11,46817,20.94,73786.0,1.27,0.51,0.51,0,*75
1497380816.36,46818,20.88,73780.8,1.25,0.47,0.47,0,*78
1497380817.58,46819,20.94,73778.5,1.27,0.51,0.51,0,*7B
1497380818.8,46820,20.88,73776.8,1.27,0.51,0.55,0,*75
1497380820.02,46821,20.88,73776.5,1.27,0.55,0.55,0,*70
1497380821.22,46822,20.94,73782.0,1.27,0.55,0.43,0,*74
1497380822.43,46823,20.94,73780.0,1.27,0.41,0.17,0,*71
1497380823.64,46824,20.94,73786.0,1.27,0.21,-0.15,0,*5F
1497380824.81,46825,20.88,73782.8,1.27,0.09,-0.29,0,*6B
1497380825.99,46826,20.88,73786.3,1.27,-0.19,-0.69,0,*70
1497380827.21,46827,20.88,73788.8,1.29,-0.81,-1.21,0,*43
1497380828.42,46828,20.88,73786.3,1.29,-1.63,-2.27,0,*74
1497380829.61,46829,20.88,73780.8,1.27,-3.03,-2.83,0,*71
1497380830.83,46830,20.88,73776.8,1.27,-4.85,-3.47,0,*79
1497380832.02,46831,20.88,73758.0,1.27,-5.47,-3.15,0,*70
1497380833.27,46832,20.94,73752.8,1.27,-5.07,-2.63,0,*77
1497380834.54,46833,20.88,73752.5,1.25,-4.89,-2.47,0,*75
1497380835.79,46834,20.94,73764.8,1.25,-3.59,-1.71,0,*7E
1497380837.0,46835,20.88,73762.5,1.23,-2.47,-1.59,0,*7D
1497380838.2,46836,20.88,73768.3,1.23,-1.79,-1.71,0,*7A
1497380839.41,46837,20.88,73770.3,1.23,-1.71,-2.23,0,*77
1497380840.62,46838,20.88,73772.5,1.21,-1.71,-2.79,0,*75
1497380841.84,46839,20.94,73772.5,1.17,-1.79,-3.39,0,*7C
1497380843.05,46840,20.88,73768.0,1.17,-2.27,-4.05,0,*72
1497380844.32,46841,20.94,73764.3,1.17,-2.63,-4.85,0,*7B
1497380845.57,46842,20.88,73758.3,1.17,-3.59,-6.13,0,*7D
1497380846.81,46843,20.94,73752.3,1.13,-3.71,-6.01,0,*71
1497380848.04,46844,20.94,73752.0,1.13,-3.35,-7.23,0,*77
1497380849.29,46845,20.94,73760.8,1.13,-4.65,-11.89,0,*43
1497380850.53,46846,20.88,73758.0,1.13,-10.19,-19.95,0,*7B
1497380851.81,46847,20.88,73756.8,1.13,-14.75,-21.33,0,*73
1497380853.05,46848,20.94,73764.8,1.13,-16.75,-19.37,0,*71
1497380854.28,46849,20.88,73766.5,1.13,-16.37,-17.69,0,*73
1497380855.53,46850,20.94,73758.8,1.11,-15.01,-15.21,0,*71
1497380856.77,46851,20.88,73750.0,1.11,-14.33,-15.43,0,*74
1497380858.01,46852,20.88,73754.3,1.09,-14.93,-14.37,0,*76
1497380859.27,46853,20.88,73758.3,1.09,-13.79,-14.89,0,*71
1497380860.55,46854,20.88,73756.8,1.09,-14.75,-17.59,0,*73
1497380861.79,46855,20.88,73762.0,1.11,-18.01,-20.25,0,*7B
1497380863.01,46856,20.88,73766.8,1.09,-22.67,-22.37,0,*79
1497380864.27,46857,20.88,73770.3,1.09,-23.99,-22.83,0,*77
1497380865.53,46858,20.88,73772.5,1.09,-24.77,-22.47,0,*77
1497380866.79,46859,20.88,73770.3,1.09,-24.83,-20.93,0,*76
1497380868.08,46860,20.94,73774.5,1.09,-22.77,-18.35,0,*76
1497380869.36,46861,20.94,73774.8,1.07,-21.27,-16.27,0,*72
1497380870.62,46862,20.88,73776.0,1.07,-19.47,-12.83,0,*76
1497380871.88,46863,20.88,73776.8,1.07,-14.79,-10.45,0,*7F
1497380873.1,46864,20.88,73776.5,1.05,-11.93,-8.75,0,*41
1497380874.31,46865,20.88,73776.0,1.05,-10.15,-7.23,0,*43
1497380875.56,46866,20.88,73778.5,1.05,-8.11,-6.63,0,*78
1497380876.78,46867,20.88,73774.5,1.05,-7.01,-6.89,0,*73
1497380877.99,46868,20.88,73762.0,1.05,-6.55,-8.51,0,*77
1497380879.22,46869,20.88,73762.3,1.05,-7.91,-11.45,0,*42
1497380880.44,46870,20.88,73764.5,1.05,-10.75,-15.67,0,*72
1497380881.7,46871,20.94,73756.8,1.03,-13.97,-16.79,0,*76
1497380882.97,46872,20.88,73764.5,1.03,-16.65,-18.59,0,*71
1497380884.17,46873,20.88,73758.0,1.01,-20.69,-18.83,0,*7C
1497380885.41,46874,20.94,73766.8,1.01,-24.25,-16.79,0,*7C
1497380886.66,46875,20.88,73760.5,0.99,-20.05,-12.07,0,*46
1497380887.91,46876,20.88,73762.8,0.99,-16.51,-11.11,0,*45
1497380889.15,46877,20.88,73758.5,0.99,-15.21,-9.19,0,*71
1497380890.38,46878,20.88,73758.5,0.97,-11.67,-7.11,0,*70
1497380891.6,46879,20.94,73756.0,0.97,-10.41,-6.35,0,*73
1497380892.83,46880,20.88,73758.3,0.97,-9.05,-5.19,0,*40
1497380894.07,46881,20.94,73764.5,0.97,-7.43,-4.01,0,*45
1497380895.26,46882,20.88,73754.8,0.97,-6.47,-2.95,0,*48
1497380896.48,46883,20.88,73764.3,0.97,-4.41,-1.99,0,*42
1497380897.71,46884,20.88,73766.0,0.99,-2.95,-2.23,0,*46
1497380898.98,46885,20.88,73778.8,0.99,-2.47,-2.47,0,*4A
1497380900.23,46886,20.88,73774.8,0.99,-2.27,-2.75,0,*4E
1497380901.46,46887,20.88,73762.3,0.97,-2.51,-3.63,0,*46
1497380902.74,46888,20.88,73746.3,0.99,-3.63,-5.27,0,*41
1497380903.96,46889,20.88,73756.0,0.97,-5.31,-6.35,0,*4F
1497380905.15,46890,20.88,73768.3,0.97,-6.47,-6.51,0,*47
1497380906.37,46891,20.88,73768.8,0.97,-8.37,-7.31,0,*48
1497380907.57,46892,20.88,73772.8,0.97,-9.75,-6.31,0,*4D
1497380908.8,46893,20.88,73764.5,0.97,-8.89,-5.07,0,*48
1497380910.01,46894,20.88,73772.5,0.93,-7.43,-4.17,0,*42
1497380911.24,46895,20.88,73772.3,0.93,-6.23,-3.67,0,*44
1497380912.45,46896,20.88,73778.5,0.93,-5.51,-3.51,0,*44
1497380913.69,46897,20.88,73782.0,0.93,-5.31,-3.43,0,*40
1497380914.91,46898,20.94,73780.3,0.97,-5.81,-3.79,0,*49
1497380916.15,46899,20.94,73776.5,0.99,-7.43,-3.91,0,*4C
1497380917.37,46900,20.88,73778.5,0.97,-8.37,-3.59,0,*4B
1497380918.56,46901,20.88,73778.3,0.97,-8.59,-2.83,0,*44